Time,TemperatureF,DewpointF,PressureIn,WindDirection,WindDirectionDegrees,WindSpeedMPH,WindSpeedGustMPH,Humidity,HourlyPrecipIn,Conditions,Clouds,dailyrainin,SoftwareType,DateUTC
2013-10-21 00:00:00,54.1,43.8,29.85,SW,231,0.0,0.0,68,0.00,,,0.03,Wunderground v.1.15,2013-10-21 04:00:00,
2013-10-21 00:05:00,54.1,44.2,29.85,SSE,156,0.0,0.0,69,0.00,,,0.00,Wunderground v.1.15,2013-10-21 04:05:00,
2013-10-21 00:15:00,54.0,44.1,29.85,SE,145,1.0,1.0,69,0.00,,,0.00,Wunderground v.1.15,2013-10-21 04:15:00,
2013-10-21 00:20:00,53.9,44.0,29.85,SSE,150,0.0,0.0,69,0.00,,,0.00,Wunderground v.1.15,2013-10-21 04:20:00,
2013-10-21 00:25:00,53.9,44.3,29.86,WSW,245,0.0,0.0,70,0.00,,,0.00,Wunderground v.1.15,2013-10-21 04:25:00,
2013-10-21 00:30:00,53.8,44.2,29.85,SW,217,0.0,1.0,70,0.00,,,0.00,Wunderground v.1.15,2013-10-21 04:30:00,
2013-10-21 00:35:00,53.6,44.4,29.86,SW,214,1.0,2.0,71,0.00,,,0.00,Wunderground v.1.15,2013-10-21 04:35:00,
2013-10-21 00:40:00,53.6,44.0,29.85,SW,219,1.0,1.0,70,0.00,,,0.00,Wunderground v.1.15,2013-10-21 04:40:00,
2013-10-21 00:50:00,53.5,44.0,29.85,WSW,237,0.0,5.0,70,0.00,,,0.00,Wunderground v.1.15,2013-10-21 04:50:00,
2013-10-21 01:00:00,53.4,43.9,29.85,SSW,210,0.0,5.0,70,0.00,,,0.00,Wunderground v.1.15,2013-10-21 05:00:00,
2013-10-21 01:05:00,53.4,44.2,29.85,SW,236,0.0,5.0,71,0.00,,,0.00,Wunderground v.1.15,2013-10-21 05:05:00,
2013-10-21 01:10:00,53.4,44.2,29.85,WSW,245,0.0,5.0,71,0.00,,,0.00,Wunderground v.1.15,2013-10-21 05:10:00,
2013-10-21 01:15:00,53.3,44.1,29.85,NNE,23,0.0,5.0,71,0.00,,,0.00,Wunderground v.1.15,2013-10-21 05:15:00,
2013-10-21 01:25:00,53.3,44.1,29.85,West,264,0.0,5.0,71,0.00,,,0.00,Wunderground v.1.15,2013-10-21 05:25:00,
2013-10-21 01:30:00,53.2,44.0,29.85,SSW,211,0.0,5.0,71,0.00,,,0.00,Wunderground v.1.15,2013-10-21 05:30:00,
2013-10-21 01:35:00,53.2,44.0,29.85,WSW,252,0.0,5.0,71,0.00,,,0.00,Wunderground v.1.15,2013-10-21 05:35:00,
2013-10-21 01:45:00,53.1,43.9,29.84,SSE,165,0.0,5.0,71,0.00,,,0.00,Wunderground v.1.15,2013-10-21 05:45:00,
2013-10-21 01:55:00,53.1,43.9,29.85,WNW,300,0.0,5.0,71,0.00,,,0.00,Wunderground v.1.15,2013-10-21 05:55:00,
2013-10-21 02:00:00,53.1,43.9,29.85,SW,215,0.0,0.0,71,0.00,,,0.00,Wunderground v.1.15,2013-10-21 06:00:00,
2013-10-21 02:05:00,53.0,43.8,29.85,SW,226,0.0,0.0,71,0.00,,,0.00,Wunderground v.1.15,2013-10-21 06:05:00,
2013-10-21 02:15:00,52.9,44.1,29.85,WSW,256,0.0,0.0,72,0.00,,,0.00,Wunderground v.1.15,2013-10-21 06:15:00,
2013-10-21 02:25:00,52.9,44.1,29.85,West,260,0.0,0.0,72,0.00,,,0.00,Wunderground v.1.15,2013-10-21 06:25:00,
2013-10-21 02:35:00,52.8,43.7,29.85,WSW,256,0.0,0.0,71,0.00,,,0.00,Wunderground v.1.15,2013-10-21 06:35:00,
2013-10-21 02:40:00,52.8,44.0,29.85,WNW,295,0.0,0.0,72,0.00,,,0.00,Wunderground v.1.15,2013-10-21 06:40:00,
2013-10-21 02:50:00,52.7,43.9,29.85,North,3,0.0,2.0,72,0.00,,,0.00,Wunderground v.1.15,2013-10-21 06:50:00,
2013-10-21 03:00:00,52.7,43.9,29.85,South,183,0.0,2.0,72,0.00,,,0.00,Wunderground v.1.15,2013-10-21 07:00:00,
2013-10-21 03:10:00,52.6,43.8,29.85,West,264,0.0,2.0,72,0.00,,,0.00,Wunderground v.1.15,2013-10-21 07:10:00,
2013-10-21 03:20:00,52.4,44.0,29.85,West,266,0.0,2.0,73,0.00,,,0.00,Wunderground v.1.15,2013-10-21 07:20:00,
2013-10-21 03:25:00,52.4,44.0,29.85,ENE,62,0.0,2.0,73,0.00,,,0.00,Wunderground v.1.15,2013-10-21 07:25:00,
2013-10-21 03:35:00,52.2,43.8,29.85,SW,234,0.0,2.0,73,0.00,,,0.00,Wunderground v.1.15,2013-10-21 07:35:00,
2013-10-21 03:45:00,52.2,43.8,29.85,SW,235,0.0,2.0,73,0.00,,,0.00,Wunderground v.1.15,2013-10-21 07:45:00,
2013-10-21 03:55:00,52.0,44.0,29.84,West,264,0.0,2.0,74,0.00,,,0.00,Wunderground v.1.15,2013-10-21 07:55:00,
2013-10-21 04:00:00,52.0,44.0,29.84,West,276,0.0,0.0,74,0.00,,,0.00,Wunderground v.1.15,2013-10-21 08:00:00,
2013-10-21 04:10:00,51.8,43.8,29.84,West,260,0.0,0.0,74,0.00,,,0.00,Wunderground v.1.15,2013-10-21 08:10:00,
2013-10-21 04:15:00,51.8,43.8,29.84,NW,308,0.0,0.0,74,0.00,,,0.00,Wunderground v.1.15,2013-10-21 08:15:00,
2013-10-21 04:25:00,51.8,43.8,29.84,WSW,239,0.0,1.0,74,0.00,,,0.00,Wunderground v.1.15,2013-10-21 08:25:00,
2013-10-21 04:30:00,51.7,43.7,29.84,WSW,250,0.0,0.0,74,0.00,,,0.00,Wunderground v.1.15,2013-10-21 08:30:00,
2013-10-21 04:40:00,51.7,44.0,29.85,WSW,255,0.0,0.0,75,0.00,,,0.00,Wunderground v.1.15,2013-10-21 08:40:00,
2013-10-21 04:50:00,51.6,43.9,29.84,WSW,249,0.0,6.0,75,0.00,,,0.00,Wunderground v.1.15,2013-10-21 08:50:00,
2013-10-21 04:55:00,51.7,44.0,29.84,SSW,210,0.0,6.0,75,0.00,,,0.00,Wunderground v.1.15,2013-10-21 08:55:00,
2013-10-21 05:05:00,51.6,43.9,29.84,South,188,0.0,6.0,75,0.00,,,0.00,Wunderground v.1.15,2013-10-21 09:05:00,
2013-10-21 05:15:00,51.6,43.9,29.84,NW,305,0.0,6.0,75,0.00,,,0.00,Wunderground v.1.15,2013-10-21 09:15:00,
2013-10-21 05:25:00,51.2,43.9,29.84,West,278,0.0,6.0,76,0.00,,,0.00,Wunderground v.1.15,2013-10-21 09:25:00,
2013-10-21 05:35:00,50.9,43.6,29.84,West,271,0.0,6.0,76,0.00,,,0.00,Wunderground v.1.15,2013-10-21 09:35:00,
2013-10-21 05:45:00,50.7,43.8,29.84,West,262,0.0,6.0,77,0.00,,,0.00,Wunderground v.1.15,2013-10-21 09:45:00,
2013-10-21 05:55:00,50.5,43.9,29.84,WSW,253,0.0,6.0,78,0.00,,,0.00,Wunderground v.1.15,2013-10-21 09:55:00,
2013-10-21 06:00:00,50.5,43.9,29.83,WSW,238,0.0,0.0,78,0.00,,,0.00,Wunderground v.1.15,2013-10-21 10:00:00,
2013-10-21 06:10:00,50.2,43.6,29.84,West,278,0.0,0.0,78,0.00,,,0.00,Wunderground v.1.15,2013-10-21 10:10:00,
2013-10-21 06:20:00,50.0,43.7,29.84,SW,229,0.0,0.0,79,0.00,,,0.00,Wunderground v.1.15,2013-10-21 10:20:00,
2013-10-21 06:30:00,49.8,43.5,29.84,WSW,243,0.0,1.0,79,0.00,,,0.00,Wunderground v.1.15,2013-10-21 10:30:00,
2013-10-21 06:40:00,49.5,43.6,29.84,SW,228,0.0,0.0,80,0.00,,,0.00,Wunderground v.1.15,2013-10-21 10:40:00,
2013-10-21 06:50:00,49.2,43.3,29.84,NNW,332,0.0,1.0,80,0.00,,,0.00,Wunderground v.1.15,2013-10-21 10:50:00,
2013-10-21 07:00:00,49.0,43.4,29.84,WSW,252,0.0,1.0,81,0.00,,,0.00,Wunderground v.1.15,2013-10-21 11:00:00,
2013-10-21 07:05:00,48.8,43.2,29.84,WSW,251,0.0,1.0,81,0.00,,,0.00,Wunderground v.1.15,2013-10-21 11:05:00,
2013-10-21 07:15:00,48.6,43.0,29.84,WSW,250,0.0,1.0,81,0.00,,,0.00,Wunderground v.1.15,2013-10-21 11:15:00,
2013-10-21 07:25:00,48.4,43.2,29.84,West,266,0.0,1.0,82,0.00,,,0.00,Wunderground v.1.15,2013-10-21 11:25:00,
2013-10-21 07:35:00,48.4,43.2,29.84,WSW,255,0.0,1.0,82,0.00,,,0.00,Wunderground v.1.15,2013-10-21 11:35:00,
2013-10-21 07:45:00,48.5,43.3,29.85,SW,219,0.0,1.0,82,0.00,,,0.00,Wunderground v.1.15,2013-10-21 11:45:00,
2013-10-21 07:55:00,48.5,43.3,29.85,WSW,252,0.0,1.0,82,0.00,,,0.00,Wunderground v.1.15,2013-10-21 11:55:00,
2013-10-21 08:00:00,48.4,43.2,29.86,West,274,0.0,0.0,82,0.00,,,0.00,Wunderground v.1.15,2013-10-21 12:00:00,
2013-10-21 08:10:00,48.4,43.2,29.86,SW,230,0.0,3.0,82,0.00,,,0.00,Wunderground v.1.15,2013-10-21 12:10:00,
2013-10-21 08:20:00,48.4,43.2,29.86,SE,135,0.0,0.0,82,0.00,,,0.00,Wunderground v.1.15,2013-10-21 12:20:00,
2013-10-21 08:30:00,48.3,43.4,29.86,WSW,255,0.0,0.0,83,0.00,,,0.00,Wunderground v.1.15,2013-10-21 12:30:00,
2013-10-21 08:40:00,48.4,43.5,29.86,WNW,296,0.0,0.0,83,0.00,,,0.00,Wunderground v.1.15,2013-10-21 12:40:00,
2013-10-21 08:45:00,48.5,43.6,29.87,WNW,296,0.0,1.0,83,0.00,,,0.00,Wunderground v.1.15,2013-10-21 12:45:00,
2013-10-21 08:55:00,48.7,43.5,29.87,West,260,0.0,3.0,82,0.00,,,0.00,Wunderground v.1.15,2013-10-21 12:55:00,
2013-10-21 09:05:00,49.0,43.7,29.86,West,266,0.0,3.0,82,0.00,,,0.00,Wunderground v.1.15,2013-10-21 13:05:00,
2013-10-21 09:15:00,49.2,43.9,29.87,SSE,166,0.0,3.0,82,0.00,,,0.00,Wunderground v.1.15,2013-10-21 13:15:00,
2013-10-21 09:25:00,49.4,43.8,29.87,West,264,0.0,3.0,81,0.00,,,0.00,Wunderground v.1.15,2013-10-21 13:25:00,
2013-10-21 09:35:00,49.6,44.0,29.87,West,262,0.0,3.0,81,0.00,,,0.00,Wunderground v.1.15,2013-10-21 13:35:00,
2013-10-21 09:45:00,49.7,44.1,29.86,NNW,339,0.0,3.0,81,0.00,,,0.00,Wunderground v.1.15,2013-10-21 13:45:00,
2013-10-21 09:55:00,50.0,44.4,29.86,WSW,242,0.0,3.0,81,0.00,,,0.00,Wunderground v.1.15,2013-10-21 13:55:00,
2013-10-21 10:00:00,50.1,44.5,29.86,SW,216,0.0,0.0,81,0.00,,,0.00,Wunderground v.1.15,2013-10-21 14:00:00,
2013-10-21 10:05:00,50.2,44.6,29.86,SSE,160,0.0,0.0,81,0.00,,,0.00,Wunderground v.1.15,2013-10-21 14:05:00,
2013-10-21 10:15:00,50.5,44.9,29.86,South,188,0.0,0.0,81,0.00,,,0.00,Wunderground v.1.15,2013-10-21 14:15:00,
2013-10-21 10:25:00,50.6,44.7,29.86,SSW,203,0.0,0.0,80,0.00,,,0.00,Wunderground v.1.15,2013-10-21 14:25:00,
2013-10-21 10:30:00,50.6,44.7,29.86,West,259,0.0,0.0,80,0.00,,,0.00,Wunderground v.1.15,2013-10-21 14:30:00,
2013-10-21 10:40:00,50.6,45.0,29.86,WSW,238,0.0,0.0,81,0.00,,,0.00,Wunderground v.1.15,2013-10-21 14:40:00,
2013-10-21 10:50:00,50.4,45.1,29.86,West,263,0.0,2.0,82,0.00,,,0.00,Wunderground v.1.15,2013-10-21 14:50:00,
2013-10-21 10:55:00,50.5,45.2,29.86,West,260,0.0,2.0,82,0.00,,,0.00,Wunderground v.1.15,2013-10-21 14:55:00,
2013-10-21 11:05:00,50.9,45.9,29.86,West,267,0.0,2.0,83,0.00,,,0.00,Wunderground v.1.15,2013-10-21 15:05:00,
2013-10-21 11:10:00,50.9,45.6,29.86,SW,225,0.0,2.0,82,0.00,,,0.00,Wunderground v.1.15,2013-10-21 15:10:00,
2013-10-21 11:20:00,51.0,46.3,29.86,West,269,0.0,2.0,84,0.00,,,0.00,Wunderground v.1.15,2013-10-21 15:20:00,
2013-10-21 11:30:00,50.9,46.2,29.86,WSW,240,0.0,2.0,84,0.00,,,0.00,Wunderground v.1.15,2013-10-21 15:30:00,
2013-10-21 11:35:00,51.0,46.6,29.86,SW,236,0.0,2.0,85,0.00,,,0.00,Wunderground v.1.15,2013-10-21 15:35:00,
2013-10-21 11:45:00,51.0,46.6,29.86,West,267,0.0,2.0,85,0.00,,,0.00,Wunderground v.1.15,2013-10-21 15:45:00,
2013-10-21 11:50:00,50.9,46.6,29.85,SW,215,0.0,2.0,85,0.00,,,0.01,Wunderground v.1.15,2013-10-21 15:50:00,
2013-10-21 12:00:00,50.6,46.6,29.85,WSW,237,0.0,0.0,86,0.00,,,0.01,Wunderground v.1.15,2013-10-21 16:00:00,
2013-10-21 12:10:00,50.5,46.8,29.85,WSW,238,0.0,0.0,87,0.00,,,0.01,Wunderground v.1.15,2013-10-21 16:10:00,
2013-10-21 12:20:00,50.3,46.9,29.85,SSW,193,0.0,0.0,88,0.00,,,0.01,Wunderground v.1.15,2013-10-21 16:20:00,
2013-10-21 12:30:00,50.3,46.9,29.85,WSW,257,0.0,0.0,88,0.00,,,0.01,Wunderground v.1.15,2013-10-21 16:30:00,
2013-10-21 12:35:00,50.3,46.9,29.84,WSW,240,0.0,0.0,88,0.00,,,0.01,Wunderground v.1.15,2013-10-21 16:35:00,
2013-10-21 12:45:00,50.3,46.9,29.85,WSW,255,0.0,0.0,88,0.00,,,0.01,Wunderground v.1.15,2013-10-21 16:45:00,
2013-10-21 12:55:00,50.3,47.2,29.85,WSW,239,0.0,1.0,89,0.00,,,0.01,Wunderground v.1.15,2013-10-21 16:55:00,
2013-10-21 13:05:00,50.3,46.9,29.84,SSW,208,0.0,1.0,88,0.00,,,0.01,Wunderground v.1.15,2013-10-21 17:05:00,
2013-10-21 13:15:00,50.4,47.3,29.84,SW,231,0.0,1.0,89,0.00,,,0.02,Wunderground v.1.15,2013-10-21 17:15:00,
2013-10-21 13:20:00,50.4,47.6,29.84,WSW,253,0.0,1.0,90,0.00,,,0.02,Wunderground v.1.15,2013-10-21 17:20:00,
2013-10-21 13:30:00,50.4,47.3,29.84,SSW,208,0.0,1.0,89,0.00,,,0.02,Wunderground v.1.15,2013-10-21 17:30:00,
2013-10-21 13:40:00,50.5,47.7,29.83,West,274,0.0,1.0,90,0.00,,,0.02,Wunderground v.1.15,2013-10-21 17:40:00,
2013-10-21 13:50:00,50.6,47.8,29.83,West,262,0.0,1.0,90,0.00,,,0.02,Wunderground v.1.15,2013-10-21 17:50:00,
2013-10-21 13:55:00,50.6,47.8,29.83,SSE,159,0.0,1.0,90,0.00,,,0.02,Wunderground v.1.15,2013-10-21 17:55:00,
2013-10-21 14:00:00,50.7,47.9,29.83,South,191,0.0,0.0,90,0.00,,,0.02,Wunderground v.1.15,2013-10-21 18:00:00,
2013-10-21 14:10:00,50.9,48.1,29.82,WSW,246,0.0,0.0,90,0.00,,,0.03,Wunderground v.1.15,2013-10-21 18:10:00,
2013-10-21 14:15:00,51.0,47.9,29.82,SW,226,0.0,0.0,89,0.00,,,0.03,Wunderground v.1.15,2013-10-21 18:15:00,
2013-10-21 14:25:00,51.2,47.8,29.82,WSW,255,0.0,0.0,88,0.00,,,0.03,Wunderground v.1.15,2013-10-21 18:25:00,
2013-10-21 14:35:00,51.3,47.6,29.82,WSW,252,0.0,1.0,87,0.00,,,0.03,Wunderground v.1.15,2013-10-21 18:35:00,
2013-10-21 14:45:00,51.3,47.6,29.81,WSW,252,0.0,1.0,87,0.00,,,0.03,Wunderground v.1.15,2013-10-21 18:45:00,
2013-10-21 14:55:00,51.4,47.7,29.81,WSW,255,0.0,1.0,87,0.00,,,0.03,Wunderground v.1.15,2013-10-21 18:55:00,
2013-10-21 15:05:00,51.6,47.5,29.81,South,187,1.0,1.0,86,0.00,,,0.03,Wunderground v.1.15,2013-10-21 19:05:00,
2013-10-21 15:10:00,51.6,47.5,29.81,West,264,0.0,1.0,86,0.00,,,0.03,Wunderground v.1.15,2013-10-21 19:10:00,
2013-10-21 15:20:00,51.6,47.2,29.81,West,274,0.0,1.0,85,0.00,,,0.03,Wunderground v.1.15,2013-10-21 19:20:00,
2013-10-21 15:30:00,51.5,47.5,29.81,NW,326,0.0,1.0,86,0.00,,,0.03,Wunderground v.1.15,2013-10-21 19:30:00,
2013-10-21 15:40:00,51.6,47.5,29.81,SE,127,0.0,1.0,86,0.00,,,0.03,Wunderground v.1.15,2013-10-21 19:40:00,
2013-10-21 15:50:00,51.8,47.7,29.80,WSW,248,0.0,1.0,86,0.00,,,0.03,Wunderground v.1.15,2013-10-21 19:50:00,
2013-10-21 15:55:00,51.9,48.2,29.80,SW,226,0.0,1.0,87,0.00,,,0.03,Wunderground v.1.15,2013-10-21 19:55:00,
2013-10-21 16:05:00,51.8,47.7,29.80,SW,228,0.0,1.0,86,0.00,,,0.03,Wunderground v.1.15,2013-10-21 20:05:00,
2013-10-21 16:15:00,51.6,47.9,29.80,ESE,117,0.0,0.0,87,0.00,,,0.03,Wunderground v.1.15,2013-10-21 20:15:00,
2013-10-21 16:25:00,51.4,47.7,29.80,SSW,198,0.0,0.0,87,0.00,,,0.03,Wunderground v.1.15,2013-10-21 20:25:00,
2013-10-21 16:35:00,51.3,47.9,29.80,WSW,239,0.0,0.0,88,0.00,,,0.03,Wunderground v.1.15,2013-10-21 20:35:00,
2013-10-21 16:45:00,51.0,48.2,29.80,SW,225,0.0,0.0,90,0.07,,,0.05,Wunderground v.1.15,2013-10-21 20:45:00,
2013-10-21 16:50:00,50.6,48.1,29.81,WNW,301,0.0,6.0,91,0.20,,,0.06,Wunderground v.1.15,2013-10-21 20:50:00,
2013-10-21 17:00:00,50.1,47.9,29.81,West,276,1.0,1.0,92,0.51,,,0.12,Wunderground v.1.15,2013-10-21 21:00:00,
2013-10-21 17:15:00,49.4,47.5,29.81,West,276,0.0,6.0,93,0.04,,,0.13,Wunderground v.1.15,2013-10-21 21:15:00,
2013-10-21 17:25:00,49.2,47.5,29.81,WNW,283,0.0,6.0,94,0.00,,,0.13,Wunderground v.1.15,2013-10-21 21:25:00,
2013-10-21 17:30:00,49.2,47.5,29.81,NNW,341,1.0,6.0,94,0.00,,,0.13,Wunderground v.1.15,2013-10-21 21:30:00,
2013-10-21 17:35:00,49.1,47.2,29.81,WNW,298,1.0,1.0,93,0.00,,,0.13,Wunderground v.1.15,2013-10-21 21:35:00,
2013-10-21 17:45:00,48.9,46.1,29.82,WNW,283,2.0,2.0,90,0.00,,,0.14,Wunderground v.1.15,2013-10-21 21:45:00,
2013-10-21 17:55:00,48.7,46.2,29.82,WNW,283,1.0,6.0,91,0.00,,,0.14,Wunderground v.1.15,2013-10-21 21:55:00,
2013-10-21 18:00:00,48.5,46.0,29.82,WNW,282,1.0,4.0,91,0.00,,,0.14,Wunderground v.1.15,2013-10-21 22:00:00,
2013-10-21 18:10:00,48.3,45.8,29.82,SW,228,1.0,2.0,91,0.00,,,0.14,Wunderground v.1.15,2013-10-21 22:10:00,
2013-10-21 18:15:00,48.3,45.2,29.83,WNW,293,2.0,2.0,89,0.00,,,0.14,Wunderground v.1.15,2013-10-21 22:15:00,
2013-10-21 18:20:00,48.2,45.1,29.83,WNW,282,2.0,2.0,89,0.00,,,0.14,Wunderground v.1.15,2013-10-21 22:20:00,
2013-10-21 18:30:00,47.9,44.8,29.83,WNW,283,1.0,1.0,89,0.00,,,0.14,Wunderground v.1.15,2013-10-21 22:30:00,
2013-10-21 18:35:00,47.8,44.7,29.83,WNW,291,1.0,1.0,89,0.00,,,0.14,Wunderground v.1.15,2013-10-21 22:35:00,
2013-10-21 18:45:00,47.7,44.3,29.83,WNW,290,1.0,3.0,88,0.00,,,0.14,Wunderground v.1.15,2013-10-21 22:45:00,
2013-10-21 18:55:00,47.3,43.3,29.83,NW,321,2.0,9.0,86,0.00,,,0.14,Wunderground v.1.15,2013-10-21 22:55:00,
2013-10-21 19:05:00,46.8,42.8,29.83,West,259,2.0,9.0,86,0.00,,,0.14,Wunderground v.1.15,2013-10-21 23:05:00,
2013-10-21 19:15:00,46.5,42.8,29.83,WNW,287,1.0,9.0,87,0.00,,,0.14,Wunderground v.1.15,2013-10-21 23:15:00,
2013-10-21 19:25:00,46.3,42.0,29.84,NW,323,1.0,9.0,85,0.00,,,0.14,Wunderground v.1.15,2013-10-21 23:25:00,
2013-10-21 19:35:00,46.4,41.8,29.84,West,274,2.0,9.0,84,0.00,,,0.14,Wunderground v.1.15,2013-10-21 23:35:00,
2013-10-21 19:45:00,46.3,41.1,29.84,WNW,295,2.0,9.0,82,0.00,,,0.14,Wunderground v.1.15,2013-10-21 23:45:00,
2013-10-21 19:55:00,46.2,41.0,29.84,West,273,2.0,9.0,82,0.00,,,0.14,Wunderground v.1.15,2013-10-21 23:55:00,
2013-10-21 20:05:00,45.9,39.8,29.84,WSW,257,3.0,4.0,79,0.00,,,0.14,Wunderground v.1.15,2013-10-22 00:05:00,
2013-10-21 20:15:00,45.5,39.0,29.85,West,269,2.0,6.0,78,0.00,,,0.14,Wunderground v.1.15,2013-10-22 00:15:00,
2013-10-21 20:25:00,45.3,38.8,29.85,WNW,293,3.0,3.0,78,0.00,,,0.14,Wunderground v.1.15,2013-10-22 00:25:00,
2013-10-21 20:35:00,44.8,38.7,29.84,West,281,2.0,2.0,79,0.00,,,0.14,Wunderground v.1.15,2013-10-22 00:35:00,
2013-10-21 20:45:00,44.5,37.7,29.84,WNW,297,3.0,4.0,77,0.00,,,0.14,Wunderground v.1.15,2013-10-22 00:45:00,
2013-10-21 20:55:00,44.0,37.3,29.84,NW,307,2.0,6.0,77,0.00,,,0.14,Wunderground v.1.15,2013-10-22 00:55:00,
2013-10-21 21:00:00,43.9,37.2,29.84,NW,304,3.0,3.0,77,0.00,,,0.14,Wunderground v.1.15,2013-10-22 01:00:00,
2013-10-21 21:05:00,43.8,37.1,29.84,WNW,294,3.0,6.0,77,0.00,,,0.14,Wunderground v.1.15,2013-10-22 01:05:00,
2013-10-21 21:15:00,43.7,36.6,29.85,West,266,3.0,3.0,76,0.00,,,0.14,Wunderground v.1.15,2013-10-22 01:15:00,
2013-10-21 21:20:00,43.6,36.5,29.85,NW,304,3.0,6.0,76,0.00,,,0.14,Wunderground v.1.15,2013-10-22 01:20:00,
2013-10-21 21:30:00,43.3,35.9,29.85,WNW,282,3.0,6.0,75,0.00,,,0.14,Wunderground v.1.15,2013-10-22 01:30:00,
2013-10-21 21:40:00,43.2,35.8,29.85,West,273,3.0,3.0,75,0.00,,,0.14,Wunderground v.1.15,2013-10-22 01:40:00,
2013-10-21 21:50:00,42.7,35.3,29.84,WNW,291,1.0,6.0,75,0.00,,,0.14,Wunderground v.1.15,2013-10-22 01:50:00,
2013-10-21 22:00:00,42.2,35.2,29.84,West,280,1.0,1.0,76,0.00,,,0.14,Wunderground v.1.15,2013-10-22 02:00:00,
2013-10-21 22:10:00,41.5,35.2,29.84,NW,311,0.0,0.0,78,0.00,,,0.14,Wunderground v.1.15,2013-10-22 02:10:00,
2013-10-21 22:15:00,41.0,35.0,29.85,NW,311,0.0,0.0,79,0.00,,,0.14,Wunderground v.1.15,2013-10-22 02:15:00,
2013-10-21 22:20:00,40.4,34.7,29.85,NW,311,0.0,0.0,80,0.00,,,0.14,Wunderground v.1.15,2013-10-22 02:20:00,
2013-10-21 22:25:00,39.9,34.5,29.85,NW,310,0.0,0.0,81,0.00,,,0.14,Wunderground v.1.15,2013-10-22 02:25:00,
2013-10-21 22:35:00,39.0,34.6,29.84,NW,311,0.0,0.0,84,0.00,,,0.14,Wunderground v.1.15,2013-10-22 02:35:00,
2013-10-21 22:40:00,39.0,34.6,29.84,NW,304,0.0,0.0,84,0.00,,,0.14,Wunderground v.1.15,2013-10-22 02:40:00,
2013-10-21 22:50:00,39.2,34.5,29.84,WNW,291,0.0,9.0,83,0.00,,,0.14,Wunderground v.1.15,2013-10-22 02:50:00,
2013-10-21 23:00:00,38.6,34.2,29.84,WNW,290,0.0,9.0,84,0.00,,,0.14,Wunderground v.1.15,2013-10-22 03:00:00,
2013-10-21 23:10:00,38.1,34.3,29.84,WNW,293,0.0,9.0,86,0.00,,,0.14,Wunderground v.1.15,2013-10-22 03:10:00,
2013-10-21 23:15:00,37.9,34.4,29.84,WNW,293,0.0,9.0,87,0.00,,,0.14,Wunderground v.1.15,2013-10-22 03:15:00,
2013-10-21 23:25:00,37.9,34.7,29.83,WNW,301,0.0,9.0,88,0.00,,,0.14,Wunderground v.1.15,2013-10-22 03:25:00,
2013-10-21 23:35:00,38.5,35.0,29.83,NW,314,0.0,9.0,87,0.00,,,0.14,Wunderground v.1.15,2013-10-22 03:35:00,
2013-10-21 23:40:00,38.8,35.3,29.84,NW,309,0.0,9.0,87,0.00,,,0.14,Wunderground v.1.15,2013-10-22 03:40:00,
2013-10-21 23:50:00,39.1,35.6,29.84,WNW,284,0.0,9.0,87,0.00,,,0.14,Wunderground v.1.15,2013-10-22 03:50:00,
2013-10-21 23:55:00,39.4,35.6,29.84,WNW,302,0.0,9.0,86,0.00,,,0.14,Wunderground v.1.15,2013-10-22 03:55:00,